,,Stat5,,Stat1,,Stat2,,Stat3,,Stat4,,Wind1,,Wind1,
time,status,PA1M_AVG,status,PR1M_SUM,status,RH1M_AVG,status,SR1M_AVG,status,TA1M_AVG,status,W1dAve1m,status,W1sAve1m,
2002-09-11, 07:06:00,VALID,918.919,VALID,0,VALID,96.4448,VALID,184.633,VALID,19.6182,VALID,91,VALID,0.660061,
2002-09-11, 07:07:00,VALID,918.919,VALID,0,VALID,96.2249,VALID,185.125,VALID,19.6441,VALID,87,VALID,0.667188,
2002-09-11, 07:08:00,VALID,918.934,VALID,0,VALID,95.4873,VALID,186.976,VALID,19.7213,VALID,114,VALID,1.07412,
2002-09-11, 07:09:00,VALID,918.94,VALID,0,VALID,94.9711,VALID,187.282,VALID,19.7927,VALID,121,VALID,0.889597,
2002-09-11, 07:10:00,VALID,918.952,VALID,0,VALID,94.6379,VALID,189.54,VALID,19.867,VALID,100,VALID,0.343117,
2002-09-11, 07:11:00,VALID,918.966,VALID,0,VALID,94.2183,VALID,194.583,VALID,19.9731,VALID,118,VALID,0.805889,
2002-09-11, 07:12:00,VALID,918.978,VALID,0,VALID,93.4146,VALID,199.678,VALID,20.057,VALID,129,VALID,1.28546,
2002-09-11, 07:13:00,VALID,918.984,VALID,0,VALID,93.1463,VALID,199.1,VALID,20.1187,VALID,130,VALID,0.879102,
2002-09-11, 07:14:00,VALID,918.995,VALID,0,VALID,92.9899,VALID,197.98,VALID,20.1801,VALID,124,VALID,0.725946,
2002-09-11, 07:15:00,VALID,919.016,VALID,0,VALID,92.6962,VALID,196.757,VALID,20.2447,VALID,126,VALID,0.674262,
2002-09-11, 07:16:00,VALID,919.044,VALID,0,VALID,92.6898,VALID,195.721,VALID,20.3222,VALID,119,VALID,0.653646,
2002-09-11, 07:17:00,VALID,919.054,VALID,0,VALID,91.7272,VALID,202.564,VALID,20.3702,VALID,125,VALID,1.24726,
2002-09-11, 07:18:00,VALID,919.079,VALID,0,VALID,91.9955,VALID,214.417,VALID,20.4114,VALID,128,VALID,0.627757,
2002-09-11, 07:19:00,VALID,919.097,VALID,0,VALID,91.8366,VALID,222.347,VALID,20.4962,VALID,150,VALID,1.00441,
2002-09-11, 07:20:00,VALID,919.112,VALID,0,VALID,91.1575,VALID,225.471,VALID,20.564,VALID,154,VALID,1.2487,
2002-09-11, 07:21:00,VALID,919.119,VALID,0,VALID,90.9286,VALID,221.889,VALID,20.5847,VALID,158,VALID,1.19634,
2002-09-11, 07:22:00,VALID,919.12,VALID,0,VALID,90.7519,VALID,218.017,VALID,20.6043,VALID,159,VALID,1.22759,
2002-09-11, 07:23:00,VALID,919.122,VALID,0,VALID,90.6107,VALID,217.609,VALID,20.5774,VALID,150,VALID,1.47344,
2002-09-11, 07:24:00,VALID,919.104,VALID,0,VALID,90.5433,VALID,219.46,VALID,20.5422,VALID,155,VALID,1.91941,
2002-09-11, 07:25:00,VALID,919.071,VALID,0,VALID,90.776,VALID,223.824,VALID,20.4934,VALID,150,VALID,1.48067,
2002-09-11, 07:26:00,VALID,919.077,VALID,0,VALID,90.6336,VALID,223.926,VALID,20.445,VALID,149,VALID,1.63345,
2002-09-11, 07:27:00,VALID,919.079,VALID,0,VALID,90.8256,VALID,225.76,VALID,20.4159,VALID,146,VALID,1.90668,
2002-09-11, 07:28:00,VALID,919.08,VALID,0,VALID,91.0456,VALID,232.026,VALID,20.396,VALID,148,VALID,1.68934,
2002-09-11, 07:29:00,VALID,919.099,VALID,0,VALID,91.0774,VALID,238.767,VALID,20.4022,VALID,140,VALID,1.63418,
2002-09-11, 07:30:00,VALID,919.103,VALID,0,VALID,90.8943,VALID,235.252,VALID,20.4221,VALID,145,VALID,1.66587,
2002-09-11, 07:31:00,VALID,919.117,VALID,0,VALID,90.7214,VALID,236.475,VALID,20.4286,VALID,150,VALID,1.63851,
2002-09-11, 07:32:00,VALID,919.132,VALID,0,VALID,90.8523,VALID,236.373,VALID,20.4504,VALID,140,VALID,1.34725,
2002-09-11, 07:33:00,VALID,919.149,VALID,0,VALID,90.8574,VALID,231.228,VALID,20.4984,VALID,143,VALID,1.34318,
2002-09-11, 07:34:00,VALID,919.138,VALID,0,VALID,90.9986,VALID,237.545,VALID,20.5543,VALID,143,VALID,1.37192,
2002-09-11, 07:35:00,VALID,919.15,VALID,0,VALID,91.0977,VALID,240.992,VALID,20.5988,VALID,146,VALID,1.00863,
2002-09-11, 07:36:00,VALID,919.152,VALID,0,VALID,90.4238,VALID,242.35,VALID,20.6731,VALID,158,VALID,1.40299,
2002-09-11, 07:37:00,VALID,919.149,VALID,0,VALID,89.3824,VALID,242.181,VALID,20.7084,VALID,136,VALID,1.40899,
2002-09-11, 07:38:00,VALID,919.145,VALID,0,VALID,89.5019,VALID,246.647,VALID,20.7474,VALID,138,VALID,1.13594,
2002-09-11, 07:39:00,VALID,919.156,VALID,0,VALID,89.7219,VALID,256.988,VALID,20.7921,VALID,137,VALID,1.04297,
2002-09-11, 07:40:00,VALID,919.165,VALID,0,VALID,90.0143,VALID,263.339,VALID,20.8597,VALID,149,VALID,0.7519,
2002-09-11, 07:41:00,VALID,919.177,VALID,0,VALID,89.7295,VALID,271.625,VALID,20.9534,VALID,147,VALID,0.761018,
2002-09-11, 07:42:00,VALID,919.18,VALID,0,VALID,89.83,VALID,279.657,VALID,21.0625,VALID,160,VALID,0.605785,
2002-09-11, 07:43:00,VALID,919.181,VALID,0,VALID,88.5571,VALID,274.461,VALID,21.1914,VALID,171,VALID,0.79375,
2002-09-11, 07:44:00,VALID,919.199,VALID,0,VALID,87.8018,VALID,280.455,VALID,21.3603,VALID,166,VALID,0.291735,
2002-09-11, 07:45:00,VALID,919.205,VALID,0,VALID,87.068,VALID,292.223,VALID,21.531,VALID,177,VALID,0.701606,
2002-09-11, 07:46:00,VALID,919.206,VALID,0,VALID,86.0012,VALID,299.915,VALID,21.6988,VALID,155,VALID,0.900174,
2002-09-11, 07:47:00,VALID,919.217,VALID,0,VALID,84.9775,VALID,292.376,VALID,21.7639,VALID,164,VALID,1.35156,
2002-09-11, 07:48:00,VALID,918.793,VALID,0,VALID,85.3806,VALID,296.468,VALID,21.7373,VALID,161,VALID,1.19119,
2002-09-11, 07:49:00,VALID,919.217,VALID,0,VALID,85.4137,VALID,310.206,VALID,21.7734,VALID,150,VALID,1.20332,
2002-09-11, 07:50:00,VALID,919.226,VALID,0,VALID,85.2827,VALID,315.538,VALID,21.779,VALID,162,VALID,0.949747,
2002-09-11, 07:51:00,VALID,919.237,VALID,0,VALID,84.8135,VALID,320.496,VALID,21.7968,VALID,146,VALID,1.28968,
2002-09-11, 07:52:00,VALID,919.239,VALID,0,VALID,85.1479,VALID,310.427,VALID,21.7965,VALID,144,VALID,1.00308,
2002-09-11, 07:53:00,VALID,919.255,VALID,0,VALID,84.7003,VALID,309.136,VALID,21.7965,VALID,149,VALID,1.26816,
2002-09-11, 07:54:00,VALID,919.265,VALID,0,VALID,84.6901,VALID,318.187,VALID,21.7963,VALID,160,VALID,0.594367,
2002-09-11, 07:55:00,VALID,919.268,VALID,0,VALID,84.4981,VALID,327.017,VALID,21.8867,VALID,155,VALID,0.39227,
2002-09-11, 07:56:00,VALID,919.272,VALID,0,VALID,83.8623,VALID,332.688,VALID,21.9931,VALID,156,VALID,1.27027,
2002-09-11, 07:57:00,VALID,919.277,VALID,0,VALID,83.3791,VALID,332.824,VALID,22.044,VALID,151,VALID,1.01649,
2002-09-11, 07:58:00,VALID,919.283,VALID,0,VALID,84.1535,VALID,358.55,VALID,22.1221,VALID,147,VALID,1.10685,
2002-09-11, 07:59:00,VALID,919.281,VALID,0,VALID,82.6874,VALID,367.635,VALID,22.1927,VALID,155,VALID,1.27109,
2002-09-11, 08:00:00,VALID,919.3,VALID,0,VALID,83.121,VALID,380.252,VALID,22.2832,VALID,149,VALID,0.385216,
2002-09-11, 08:01:00,VALID,919.308,VALID,0,VALID,81.9435,VALID,383.716,VALID,22.399,VALID,145,VALID,1.00507,
2002-09-11, 08:02:00,VALID,919.307,VALID,0,VALID,81.3865,VALID,401.902,VALID,22.5027,VALID,151,VALID,1.03351,
2002-09-11, 08:03:00,VALID,919.316,VALID,0,VALID,80.3006,VALID,404.517,VALID,22.5735,VALID,149,VALID,1.129,
2002-09-11, 08:04:00,VALID,919.336,VALID,0,VALID,80.134,VALID,409.017,VALID,22.6088,VALID,122,VALID,1.06332,
2002-09-11, 08:05:00,VALID,919.346,VALID,0,VALID,80.6859,VALID,421.923,VALID,22.6702,VALID,124,VALID,0.646382,
2002-09-11, 08:06:00,VALID,919.361,VALID,0,VALID,80.5104,VALID,421.193,VALID,22.7504,VALID,130,VALID,0.679253,
2002-09-11, 08:07:00,VALID,918.969,VALID,0,VALID,80.9249,VALID,438.36,VALID,22.8409,VALID,130,VALID,0.593117,
2002-09-11, 08:08:00,VALID,919.391,VALID,0,VALID,80.6515,VALID,395.178,VALID,22.9597,VALID,130,VALID,0.855357,
2002-09-11, 08:09:00,VALID,919.39,VALID,0,VALID,81.1258,VALID,419.851,VALID,23.0466,VALID,136,VALID,0.495066,
2002-09-11, 08:10:00,VALID,919.416,VALID,0,VALID,80.6948,VALID,414.859,VALID,23.1706,VALID,161,VALID,0.727618,
2002-09-11, 08:11:00,VALID,919.412,VALID,0,VALID,79.5935,VALID,475.005,VALID,23.2374,VALID,155,VALID,0.816306,
2002-09-11, 08:12:00,VALID,919.407,VALID,0,VALID,79.961,VALID,474.207,VALID,23.3308,VALID,156,VALID,1.22213,
2002-09-11, 08:13:00,VALID,919.414,VALID,0,VALID,80.9453,VALID,459.298,VALID,23.3217,VALID,210,VALID,1.71992,
2002-09-11, 08:14:00,VALID,919.425,VALID,0,VALID,81.3865,VALID,400.238,VALID,23.1498,VALID,255,VALID,1.32463,
2002-09-11, 08:15:00,VALID,919.446,VALID,0,VALID,82.1825,VALID,413.585,VALID,22.8874,VALID,358,VALID,2.41515,
2002-09-11, 08:16:00,VALID,919.424,VALID,0,VALID,82.5844,VALID,352.794,VALID,22.7872,VALID,342,VALID,1.00282,
2002-09-11, 08:17:00,VALID,919.499,VALID,0,VALID,83.1184,VALID,466.854,VALID,22.8295,VALID,335,VALID,0.0464638,
2002-09-11, 08:18:00,VALID,919.512,VALID,0,VALID,82.4992,VALID,500.714,VALID,23.0425,VALID,349,VALID,0.467014,
2002-09-11, 08:19:00,VALID,919.508,VALID,0,VALID,80.6299,VALID,517.644,VALID,23.2623,VALID,297,VALID,0.144817,
2002-09-11, 08:20:00,VALID,919.505,VALID,0,VALID,79.1243,VALID,513.127,VALID,23.4011,VALID,273,VALID,0.592905,
2002-09-11, 08:21:00,VALID,919.507,VALID,0,VALID,78.3792,VALID,539.243,VALID,23.3411,VALID,324,VALID,0.57463,
2002-09-11, 08:22:00,VALID,919.499,VALID,0,VALID,78.739,VALID,544.202,VALID,23.2441,VALID,313,VALID,0.408923,
2002-09-11, 08:23:00,VALID,919.492,VALID,0,VALID,79.7296,VALID,546.902,VALID,23.2785,VALID,307,VALID,0.0632813,
2002-09-11, 08:24:00,VALID,919.485,VALID,0,VALID,79.0353,VALID,544.983,VALID,23.6127,VALID,307,VALID,0.000205592,
2002-09-11, 08:25:00,VALID,919.491,VALID,0,VALID,77.5984,VALID,540.653,VALID,23.9642,VALID,139,VALID,0.452714,
2002-09-11, 08:26:00,VALID,919.509,VALID,0,VALID,76.1081,VALID,475.344,VALID,24.2061,VALID,112,VALID,0.746199,
2002-09-11, 08:27:00,VALID,919.506,VALID,0,VALID,75.7088,VALID,347.258,VALID,24.2708,VALID,128,VALID,0.821398,
2002-09-11, 08:28:00,VALID,919.526,VALID,0,VALID,74.9598,VALID,373.527,VALID,24.1841,VALID,149,VALID,0.53171,
2002-09-11, 08:29:00,VALID,919.523,VALID,0,VALID,75.677,VALID,502.174,VALID,24.1443,VALID,151,VALID,0.614844,
2002-09-11, 08:30:00,VALID,919.529,VALID,0,VALID,76.2823,VALID,572.339,VALID,24.2032,VALID,152,VALID,0.304688,
2002-09-11, 08:31:00,VALID,919.543,VALID,0,VALID,76.5862,VALID,582.001,VALID,24.328,VALID,149,VALID,0.509924,
2002-09-11, 08:32:00,VALID,919.545,VALID,0,VALID,76.5811,VALID,597.063,VALID,24.4956,VALID,112,VALID,0.412623,
2002-09-11, 08:33:00,VALID,919.556,VALID,0,VALID,75.4456,VALID,607.218,VALID,24.697,VALID,96,VALID,0.0844131,
2002-09-11, 08:34:00,VALID,919.555,VALID,0,VALID,74.2299,VALID,604.874,VALID,24.903,VALID,96,VALID,0.307977,
2002-09-11, 08:35:00,VALID,919.538,VALID,0,VALID,72.6124,VALID,582.799,VALID,25.0547,VALID,171,VALID,0.86616,
2002-09-11, 08:36:00,VALID,919.532,VALID,0,VALID,71.6346,VALID,564.782,VALID,25.0958,VALID,208,VALID,0.741319,
2002-09-11, 08:37:00,VALID,919.524,VALID,0,VALID,71.8101,VALID,558.924,VALID,25.0408,VALID,194,VALID,0.15076,
2002-09-11, 08:38:00,VALID,919.5,VALID,0,VALID,73.3563,VALID,565.462,VALID,25.2549,VALID,82,VALID,1.225,
2002-09-11, 08:39:00,VALID,919.483,VALID,0,VALID,71.4998,VALID,551.351,VALID,25.1049,VALID,95,VALID,1.22656,
2002-09-11, 08:40:00,VALID,919.493,VALID,0,VALID,70.3159,VALID,530.057,VALID,24.8591,VALID,102,VALID,0.352829,
2002-09-11, 08:41:00,VALID,919.492,VALID,0,VALID,72.5679,VALID,494.838,VALID,24.7947,VALID,81,VALID,0.52504,
2002-09-11, 08:42:00,VALID,919.49,VALID,0,VALID,73.4148,VALID,498.795,VALID,24.8103,VALID,103,VALID,0.706503,
2002-09-11, 08:43:00,VALID,919.513,VALID,0,VALID,73.158,VALID,510.868,VALID,24.8044,VALID,89,VALID,0.982031,
2002-09-11, 08:44:00,VALID,919.501,VALID,0,VALID,74.2859,VALID,537.545,VALID,24.7424,VALID,180,VALID,0.685238,
2002-09-11, 08:45:00,VALID,919.524,VALID,0,VALID,74.4957,VALID,549.415,VALID,24.8032,VALID,125,VALID,0.829861,
2002-09-11, 08:46:00,VALID,919.514,VALID,0,VALID,71.084,VALID,523.604,VALID,24.8685,VALID,149,VALID,0.650391,
2002-09-11, 08:47:00,VALID,919.514,VALID,0,VALID,71.819,VALID,489.863,VALID,24.9458,VALID,130,VALID,0.532689,
2002-09-11, 08:48:00,VALID,919.104,VALID,0,VALID,73.2457,VALID,464.137,VALID,24.981,VALID,143,VALID,1.19097,
2002-09-11, 08:49:00,VALID,919.503,VALID,0,VALID,73.2368,VALID,460.843,VALID,24.9458,VALID,159,VALID,0.631098,
2002-09-11, 08:50:00,VALID,919.499,VALID,0,VALID,71.5926,VALID,480.184,VALID,24.9513,VALID,94,VALID,0.559333,
